Regional Weather Roundup
Issued by NWS Kansas City/Pleasant Hill, MO

Home | Current Version | Previous Version | Graphics & Text | Print | Product List | Glossary Off
Versions: 1 2 3 4 5 6 7 8 9 10 11 12 13 14 15 16 17 18 19 20 21 22 23 24 25 26 27

000
ASUS43 KEAX 250310
RWREAX

WEATHER ROUNDUP FOR EASTERN KANSAS AND NORTHWEST MISSOURI
NATIONAL WEATHER SERVICE KANSAS CITY/PLEASANT HILL MO
1000 PM CDT MON JUL 24 2017

KSZ040-057-103>105-MOZ028-029-037-043-250400-
...KANSAS CITY METROPOLITAN AREA...

CITY           SKY/WX    TMP DP  RH WIND       PRES   REMARKS
K.C. INTL      CLEAR     79  68  69 SE9       30.00R
K.C. DOWNTOWN  CLEAR     80  69  69 E8        29.98R
LEES SUMMIT    CLEAR     76  70  82 E6        30.01R
OLATHE - IXD   CLEAR     78  70  76 E7        30.00R
OLATHE - OJC   CLEAR     77  69  76 E7        30.00R
LAWRENCE       PTCLDY    78  71  79 NE7       29.98R

$$

MOZ001>008-011>017-020>025-030>033-038>040-044>046-053-054-250400-
...NORTHERN AND CENTRAL MISSOURI...

CITY           SKY/WX    TMP DP  RH WIND       PRES   REMARKS
ST. JOSEPH     CLEAR     78  69  73 S3        30.00R
MOSBY          CLEAR     75  66  73 CALM      30.00R
WARRENSBURG    CLEAR     73  66  78 NE5       30.00R
WHITEMAN AFB   CLEAR     73  73 100 E6        29.99R
CLINTON        CLEAR     73  68  83 E5        30.00R
SEDALIA        CLEAR     74  71  91 N3        30.02R
WARSAW         NOT AVBL
CHILLICOTHE      N/A     71  69  93 CALM      30.02R
KIRKSVILLE     CLEAR     72  64  76 E6        30.04R

$$

MOZ041-047>049-056>058-063>065-088>090-097-250400-
...EASTERN AND SOUTHERN MISSOURI...

CITY           SKY/WX    TMP DP  RH WIND       PRES   REMARKS
ST. LOUIS INTL NOT AVBL
SPIRIT OF STL  CLEAR     79  70  74 NE7       30.00R
COLUMBIA       CLEAR     74  67  78 E7        30.01R
JEFFERSON CITY CLEAR     79  68  69 NE7       29.99R
ROLLA          CLEAR     74  67  78 NE6       30.02R
OSAGE BEACH    CLEAR     76  67  73 NE5       30.01R
SPRINGFIELD    CLEAR     79  74  84 CALM      30.00R
BRANSON        PTCLDY    79  72  78 CALM      30.02R
JOPLIN         PTCLDY    83  74  74 CALM      29.99R
WEST PLAINS    CLOUDY    78  76  93 E3        30.02R

$$

IAZ060-094-KSZ022-034>040-054-083-096-NEZ052-066-093-250400-
...KANSAS...SOUTHEAST NEBRASKA AND IOWA...

CITY           SKY/WX    TMP DP  RH WIND       PRES   REMARKS
TOPEKA         CLEAR     80  75  84 E6        29.97R
MANHATTAN      CLEAR     82  74  76 SE3       29.95R
EMPORIA        CLEAR     82  73  74 S5        29.97R
CHANUTE        CLEAR     81  72  74 S5        29.98R
WICHITA        CLEAR     84  68  58 S9        29.96R
OMAHA          PTCLDY    79  67  66 SE13      29.98R
LINCOLN        CLEAR     80  67  64 SE12      29.97R
FALLS CITY     CLEAR     74  68  81 SE5       29.98R
LAMONI         CLEAR     74  65  73 S5        30.01S
DES MOINES     CLEAR     76  63  64 E9        30.00R

$$





USA.gov is the U.S. government's official web portal to all federal, state and local government web resources and services.